Eagle, CO

6:15 PM MDT on September 20, 2017 (GMT -0600)
Eagle County Regional

Weather History for KEGE - February, 2014

Change the Weather History Date:

Sunday, February 2, 2014

  Actual Average Record
Temperature  
Mean Temperature 4 °F -  
Max Temperature 19 °F 36 °F 56 °F (1987)
Min Temperature -11 °F 5 °F -28 °F (1951)
Degree Days  
Heating Degree Days 61    
Moisture  
Dew Point -4 °F    
Average Humidity 86    
Maximum Humidity 100    
Minimum Humidity 63    
Precipitation  
Precipitation 0.00 in - - ()
Sea Level Pressure  
Sea Level Pressure 30.07 in    
Wind  
Wind Speed 1 mph (East)    
Max Wind Speed 7 mph    
Max Gust Speed -    
Visibility 10 miles    
Events      
Averages and records for this station are not official NWS values.
T = Trace of Precipitation, MM = Missing Value Source: NWS Daily Summary

Daily Weather History Graph

Daily Weather History Graph

Search for Another Location

Airport or City:

Trip Planner

Search our weather history database for the weather conditions in past years. The results will help you decide how hot, cold, wet, or windy it might be!

Date:

Astronomy

Feb. 02, 2014 Rise Set
Actual Time 7:14 AM MST 5:28 PM MST
Civil Twilight 6:46 AM MST 5:57 PM MST
Nautical Twilight 6:13 AM MST 6:29 PM MST
Astronomical Twilight 5:42 AM MST 7:01 PM MST
Moon 8:43 AM MST (2/2) 9:15 PM MST (2/2)
Length of Visible Light 11h 11m
Length of Day
10h 14m
Waxing Crescent, 12% of the Moon is Illuminated
Feb 2
Waxing Crescent
Feb 6
First Quarter
Feb 14
Full
Feb 22
Last Quarter
Mar 1
New

Hourly Weather History & Observations

Time (MST) Temp. Windchill Dew Point Humidity Pressure Visibility Wind Dir Wind Speed Gust Speed Precip Events Conditions
12:15 AM 1.4 °F - -0.4 °F 92% 30.07 in 10.0 mi Calm Calm - N/A   Clear
12:35 AM -0.4 °F - -2.2 °F 92% 30.07 in 10.0 mi Calm Calm - N/A   Clear
12:55 AM -0.4 °F - -2.2 °F 92% 30.07 in 10.0 mi Calm Calm - N/A   Clear
1:15 AM -2.2 °F - -4.0 °F 92% 30.08 in 10.0 mi Calm Calm - N/A   Clear
1:35 AM -2.2 °F -14.2 °F -5.8 °F 85% 30.08 in 10.0 mi East 5.8 mph - N/A   Clear
1:55 AM -4.0 °F -17.8 °F -5.8 °F 92% 30.09 in 10.0 mi East 6.9 mph - N/A   Clear
2:15 AM -5.8 °F -14.5 °F -5.8 °F 100% 30.09 in 10.0 mi ESE 3.5 mph - N/A   Clear
2:35 AM -5.8 °F -16.7 °F -7.6 °F 92% 30.10 in 10.0 mi East 4.6 mph - N/A   Clear
2:55 AM -5.8 °F - -7.6 °F 92% 30.11 in 10.0 mi Calm Calm - N/A   Clear
3:15 AM -5.8 °F - -7.6 °F 92% 30.11 in 10.0 mi Calm Calm - N/A   Clear
3:35 AM -5.8 °F - -7.6 °F 92% 30.11 in 10.0 mi Calm Calm - N/A   Clear
3:55 AM -7.6 °F - -9.4 °F 92% 30.11 in 10.0 mi Calm Calm - N/A   Clear
4:15 AM -7.6 °F - -9.4 °F 92% 30.11 in 10.0 mi Calm Calm - N/A   Clear
4:35 AM -7.6 °F - -11.2 °F 84% 30.12 in 10.0 mi Calm Calm - N/A   Clear
4:55 AM -7.6 °F - -11.2 °F 84% 30.12 in 10.0 mi Calm Calm - N/A   Clear
5:15 AM -9.4 °F -18.6 °F -11.2 °F 92% 30.12 in 10.0 mi East 3.5 mph - N/A   Clear
5:35 AM -9.4 °F -22.7 °F -14.8 °F 77% 30.13 in 10.0 mi East 5.8 mph - N/A   Clear
5:55 AM -11.2 °F -23.0 °F -14.8 °F 84% 30.13 in 10.0 mi ESE 4.6 mph - N/A   Mostly Cloudy
6:15 AM -9.4 °F - -13.0 °F 84% 30.14 in 10.0 mi Calm Calm - N/A   Overcast
6:35 AM -9.4 °F -20.9 °F -13.0 °F 84% 30.14 in 10.0 mi East 4.6 mph - N/A   Overcast
6:50 AM -9.4 °F - -11.2 °F 92% 30.15 in 10.0 mi Calm Calm - N/A   Partly Cloudy
7:50 AM -9.4 °F - -13.0 °F 84% 30.17 in 10.0 mi Calm Calm - N/A   Partly Cloudy
8:55 AM -7.6 °F - -11.2 °F 84% 30.18 in 6.0 mi Calm Calm - N/A   Clear
9:50 AM 1.4 °F - -2.2 °F 85% 30.17 in 10.0 mi Calm Calm - N/A   Clear
10:50 AM 6.8 °F - -0.4 °F 72% 30.15 in 10.0 mi Calm Calm - N/A   Clear
11:50 AM 1.4 °F -6.2 °F -2.2 °F 85% 30.11 in 10.0 mi West 3.5 mph - N/A   Clear
12:50 PM 10.4 °F - 3.2 °F 73% 30.05 in 10.0 mi Calm Calm - N/A   Clear
1:50 PM 10.4 °F - 5.0 °F 79% 30.01 in 10.0 mi Calm Calm - N/A   Clear
2:50 PM 12.2 °F 4.3 °F 6.8 °F 79% 29.99 in 10.0 mi West 4.6 mph - N/A   Clear
3:50 PM 19.4 °F - 8.6 °F 63% 29.96 in 10.0 mi Calm Calm - N/A   Clear
4:50 PM 15.8 °F - 6.8 °F 68% 29.95 in 10.0 mi Calm Calm - N/A   Clear
5:50 PM 8.6 °F - 3.2 °F 79% 29.98 in 10.0 mi Calm Calm - N/A   Clear
6:50 PM 3.2 °F -9.1 °F -0.4 °F 85% 29.98 in 10.0 mi ENE 6.9 mph - N/A   Clear
7:50 PM 3.2 °F - 1.4 °F 92% 29.96 in 10.0 mi Calm Calm - N/A   Clear
8:50 PM 3.2 °F - 1.4 °F 92% 29.97 in 10.0 mi Calm Calm - N/A   Scattered Clouds
9:50 PM 1.4 °F - -0.4 °F 92% 29.98 in 10.0 mi Calm Calm - N/A   Scattered Clouds
10:50 PM - - - N/A% 29.99 in 10.0 mi Calm Calm - N/A   Scattered Clouds
10:55 PM 1.4 °F - -0.4 °F 92% 29.99 in 10.0 mi Calm Calm - N/A   Clear
11:15 PM 3.2 °F - -0.4 °F 85% 29.99 in 10.0 mi Calm Calm - N/A   Mostly Cloudy
11:35 PM -0.4 °F -10.4 °F -2.2 °F 92% 29.99 in 10.0 mi East 4.6 mph - N/A   Overcast
11:55 PM 1.4 °F -8.3 °F -2.2 °F 85% 29.99 in 10.0 mi East 4.6 mph - N/A   Overcast